Location: Bailleul
(50.3375°N, 2.8513°E)
Time: 16:12:22
(UTC+00:00)

Cosmos 2098 Rocket - Pass Details

Date: 19 April 2021
Orbit: 367 x 1178 km, 82.9° (Epoch: 06 May)

Event Time Altitude Azimuth Distance (km) Brightness Sun altitude
Rises 19:14:51 0° 350° (N) 3,807 7.6 -4.6°
Reaches altitude 10° 19:17:20 10° 352° (N) 2,931 7.0 -4.9°
Maximum altitude 19:24:23 77° 79° (E) 1,193 4.4 -5.9°
Drops below altitude 10° 19:31:49 10° 166° (SSE) 3,085 6.2 -7.0°
Sets 19:34:29 0° 168° (SSE) 4,017 6.8 -7.4°
